LXP206 SCEL-SCIE

Flight info

Callsign LXP206
Flight time 0h 53m
Altitude 29000
Route GELUS5B GELUS UQ809 ARUNI ARUNI6C
Aircraft A320/M-SDE3FGHIRWY/LB1

Departure

Time 2026-04-24 12:49
Airport Comodoro Arturo Merino Benítez International Airport (SCEL)

Arrival

Time 2026-04-24 13:42
Airport Carriel Sur International Airport (SCIE)
Time Latitude Longitude Altitude Speed Heading
2026-04-24 12:23 -33.39603 -70.79606 1564 ft 0 kts 176°
2026-04-24 12:35 -33.39590 -70.79607 1564 ft 4 kts 178°
2026-04-24 12:35 -33.39563 -70.79607 1564 ft 4 kts 184°
2026-04-24 12:35 -33.39537 -70.79602 1564 ft 4 kts 201°
2026-04-24 12:35 -33.39518 -70.79587 1564 ft 4 kts 257°
2026-04-24 12:36 -33.39517 -70.79581 1564 ft 0 kts 267°
2026-04-24 12:41 -33.39519 -70.79627 1564 ft 10 kts 267°
2026-04-24 12:41 -33.39522 -70.79705 1564 ft 9 kts 267°
2026-04-24 12:42 -33.39525 -70.79771 1565 ft 7 kts 267°
2026-04-24 12:42 -33.39527 -70.79823 1565 ft 6 kts 268°
2026-04-24 12:42 -33.39505 -70.79879 1565 ft 11 kts 333°
2026-04-24 12:42 -33.39434 -70.79883 1565 ft 9 kts 359°
2026-04-24 12:43 -33.39375 -70.79885 1565 ft 8 kts 358°
2026-04-24 12:43 -33.39341 -70.79946 1565 ft 14 kts 279°
2026-04-24 12:43 -33.39297 -70.80036 1566 ft 12 kts 324°
2026-04-24 12:43 -33.39221 -70.80060 1566 ft 13 kts 356°
2026-04-24 12:44 -33.39106 -70.80068 1566 ft 20 kts 357°
2026-04-24 12:44 -33.38953 -70.80076 1567 ft 23 kts 358°
2026-04-24 12:44 -33.38789 -70.80085 1567 ft 24 kts 357°
2026-04-24 12:44 -33.38615 -70.80094 1567 ft 26 kts 358°
2026-04-24 12:45 -33.38433 -70.80102 1567 ft 27 kts 358°
2026-04-24 12:45 -33.38242 -70.80115 1566 ft 28 kts 356°
2026-04-24 12:45 -33.38045 -70.80128 1566 ft 29 kts 357°
2026-04-24 12:45 -33.37841 -70.80137 1566 ft 29 kts 358°
2026-04-24 12:46 -33.37650 -70.80147 1567 ft 25 kts 358°
2026-04-24 12:46 -33.37484 -70.80154 1567 ft 24 kts 358°
2026-04-24 12:46 -33.37314 -70.80163 1567 ft 24 kts 356°
2026-04-24 12:46 -33.37175 -70.80173 1567 ft 15 kts 354°
2026-04-24 12:47 -33.37132 -70.80195 1567 ft 4 kts 323°
2026-04-24 12:47 -33.37113 -70.80220 1568 ft 8 kts 303°
2026-04-24 12:47 -33.37104 -70.80273 1571 ft 2 kts 268°
2026-04-24 12:47 -33.37111 -70.80314 1573 ft 13 kts 249°
2026-04-24 12:48 -33.37191 -70.80374 1573 ft 11 kts 183°
2026-04-24 12:48 -33.37210 -70.80373 1573 ft 0 kts 176°
2026-04-24 12:48 -33.37337 -70.80365 1573 ft 55 kts 177°
2026-04-24 12:48 -33.37969 -70.80332 1572 ft 123 kts 177°
2026-04-24 12:49 -33.38989 -70.80274 1702 ft 163 kts 177°
2026-04-24 12:49 -33.40184 -70.80218 2235 ft 177 kts 177°
2026-04-24 12:49 -33.41415 -70.80153 3017 ft 177 kts 177°
2026-04-24 12:49 -33.42707 -70.80075 3423 ft 197 kts 177°
2026-04-24 12:50 -33.44160 -70.79985 3727 ft 221 kts 177°
2026-04-24 12:50 -33.45786 -70.79928 4146 ft 246 kts 185°
2026-04-24 12:50 -33.47391 -70.80716 4639 ft 266 kts 221°
2026-04-24 12:50 -33.48543 -70.82488 5424 ft 275 kts 241°
2026-04-24 12:51 -33.49372 -70.84568 6356 ft 278 kts 249°
2026-04-24 12:51 -33.49401 -70.84652 6389 ft 278 kts 249°
2026-04-24 12:51 -33.49407 -70.84669 6406 ft 278 kts 249°
2026-04-24 12:52 -33.50126 -70.86835 7289 ft 281 kts 250°
2026-04-24 12:52 -33.50846 -70.89021 8184 ft 283 kts 249°
2026-04-24 12:52 -33.51607 -70.91220 8772 ft 288 kts 248°
2026-04-24 12:52 -33.52155 -70.92725 8928 ft 288 kts 247°
2026-04-24 12:53 -33.52165 -70.92753 8929 ft 288 kts 247°
2026-04-24 12:53 -33.52997 -70.94935 9000 ft 287 kts 246°
2026-04-24 12:53 -33.54056 -70.96961 9004 ft 289 kts 229°
2026-04-24 12:54 -33.55634 -70.98469 9228 ft 297 kts 209°
2026-04-24 12:54 -33.57492 -70.99564 10174 ft 298 kts 208°
2026-04-24 12:54 -33.58981 -71.00456 10497 ft 315 kts 208°
2026-04-24 12:55 -33.60241 -71.01224 10711 ft 328 kts 208°
2026-04-24 12:55 -33.62301 -71.02492 11368 ft 336 kts 209°
2026-04-24 12:55 -33.64367 -71.03763 12145 ft 340 kts 209°
2026-04-24 12:56 -33.66480 -71.05056 12964 ft 342 kts 209°
2026-04-24 12:56 -33.68613 -71.06356 13761 ft 345 kts 209°
2026-04-24 12:56 -33.70765 -71.07663 14497 ft 348 kts 209°
2026-04-24 12:56 -33.72929 -71.08979 15211 ft 350 kts 210°
2026-04-24 12:57 -33.75107 -71.10303 15932 ft 351 kts 210°
2026-04-24 12:57 -33.77291 -71.11632 16654 ft 353 kts 210°
2026-04-24 12:57 -33.79489 -71.12970 17365 ft 355 kts 210°
2026-04-24 12:57 -33.81692 -71.14318 18075 ft 357 kts 210°
2026-04-24 12:58 -33.83915 -71.15677 18747 ft 359 kts 210°
2026-04-24 12:58 -33.86123 -71.17026 19340 ft 361 kts 211°
2026-04-24 12:58 -33.88370 -71.18400 19941 ft 364 kts 211°
2026-04-24 12:58 -33.90639 -71.19784 20519 ft 366 kts 211°
2026-04-24 12:59 -33.92916 -71.21174 21102 ft 369 kts 211°
2026-04-24 12:59 -33.95213 -71.22578 21664 ft 372 kts 211°
2026-04-24 12:59 -33.97529 -71.23993 22228 ft 374 kts 211°
2026-04-24 12:59 -33.99854 -71.25417 22781 ft 376 kts 212°
2026-04-24 13:00 -34.02192 -71.26855 23331 ft 379 kts 212°
2026-04-24 13:00 -34.04544 -71.28298 23867 ft 381 kts 212°
2026-04-24 13:00 -34.06920 -71.29753 24297 ft 383 kts 212°
2026-04-24 13:00 -34.09271 -71.31192 24740 ft 385 kts 212°
2026-04-24 13:01 -34.11657 -71.32655 25193 ft 386 kts 212°
2026-04-24 13:01 -34.14066 -71.34135 25624 ft 388 kts 212°
2026-04-24 13:01 -34.16474 -71.35615 26053 ft 390 kts 212°
2026-04-24 13:01 -34.18896 -71.37109 26488 ft 391 kts 212°
2026-04-24 13:02 -34.21319 -71.38607 26917 ft 392 kts 213°
2026-04-24 13:02 -34.23755 -71.40114 27347 ft 394 kts 213°
2026-04-24 13:02 -34.26198 -71.41624 27764 ft 396 kts 213°
2026-04-24 13:02 -34.28659 -71.43139 28175 ft 397 kts 213°
2026-04-24 13:03 -34.31126 -71.44660 28585 ft 399 kts 213°
2026-04-24 13:03 -34.33605 -71.46192 29013 ft 401 kts 213°
2026-04-24 13:03 -34.36087 -71.47730 29228 ft 402 kts 213°
2026-04-24 13:03 -34.38503 -71.49219 29258 ft 386 kts 213°
2026-04-24 13:04 -34.40861 -71.50662 29268 ft 375 kts 213°
2026-04-24 13:04 -34.45468 -71.53507 29274 ft 370 kts 214°
2026-04-24 13:05 -34.50039 -71.56358 29269 ft 369 kts 214°
2026-04-24 13:05 -34.54603 -71.59207 29276 ft 369 kts 214°
2026-04-24 13:06 -34.59172 -71.62051 29304 ft 369 kts 214°
2026-04-24 13:06 -34.63713 -71.64881 29287 ft 369 kts 214°
2026-04-24 13:07 -34.68278 -71.67724 29282 ft 369 kts 214°
2026-04-24 13:07 -34.72847 -71.70570 29277 ft 369 kts 214°
2026-04-24 13:08 -34.77408 -71.73423 29274 ft 369 kts 214°
2026-04-24 13:08 -34.81970 -71.76272 29271 ft 369 kts 214°
2026-04-24 13:09 -34.88791 -71.80540 29292 ft 369 kts 214°
2026-04-24 13:09 -34.93360 -71.83407 29279 ft 369 kts 214°
2026-04-24 13:10 -34.97924 -71.86280 29270 ft 369 kts 214°
2026-04-24 13:10 -35.02563 -71.89214 29289 ft 387 kts 214°
2026-04-24 13:11 -35.07347 -71.92235 28870 ft 386 kts 214°
2026-04-24 13:11 -35.09730 -71.93727 28329 ft 382 kts 213°
2026-04-24 13:11 -35.12089 -71.95205 27766 ft 380 kts 213°
2026-04-24 13:12 -35.14426 -71.96674 27210 ft 377 kts 213°
2026-04-24 13:12 -35.16746 -71.98139 26617 ft 373 kts 213°
2026-04-24 13:12 -35.19043 -71.99591 25879 ft 370 kts 213°
2026-04-24 13:12 -35.21312 -72.01028 25170 ft 366 kts 213°
2026-04-24 13:13 -35.21672 -72.01256 25057 ft 365 kts 213°
2026-04-24 13:15 -35.22312 -72.01665 24919 ft 362 kts 213°
2026-04-24 13:15 -35.24465 -72.03037 24449 ft 355 kts 213°
2026-04-24 13:15 -35.26639 -72.04414 23994 ft 347 kts 213°
2026-04-24 13:15 -35.28758 -72.05754 23511 ft 340 kts 213°
2026-04-24 13:16 -35.30832 -72.07065 23061 ft 332 kts 213°
2026-04-24 13:16 -35.32859 -72.08345 22580 ft 325 kts 213°
2026-04-24 13:16 -35.34822 -72.09589 22134 ft 319 kts 213°
2026-04-24 13:16 -35.36772 -72.10826 21696 ft 313 kts 213°
2026-04-24 13:17 -35.38688 -72.12045 21264 ft 307 kts 213°
2026-04-24 13:17 -35.40569 -72.13244 20865 ft 303 kts 213°
2026-04-24 13:17 -35.42426 -72.14432 20434 ft 299 kts 213°
2026-04-24 13:17 -35.44259 -72.15607 20022 ft 296 kts 213°
2026-04-24 13:18 -35.46081 -72.16772 19617 ft 294 kts 213°
2026-04-24 13:18 -35.47889 -72.17926 19220 ft 292 kts 213°
2026-04-24 13:18 -35.49694 -72.19080 18812 ft 293 kts 212°
2026-04-24 13:18 -35.51487 -72.20225 18391 ft 295 kts 212°
2026-04-24 13:19 -35.53313 -72.21391 17973 ft 296 kts 212°
2026-04-24 13:19 -35.55139 -72.22563 17561 ft 296 kts 212°
2026-04-24 13:19 -35.56964 -72.23735 17170 ft 297 kts 212°
2026-04-24 13:19 -35.58800 -72.24913 16784 ft 298 kts 212°
2026-04-24 13:20 -35.60640 -72.26090 16394 ft 299 kts 212°
2026-04-24 13:20 -35.62486 -72.27269 15993 ft 300 kts 211°
2026-04-24 13:20 -35.64338 -72.28452 15588 ft 301 kts 211°
2026-04-24 13:20 -35.66200 -72.29645 15208 ft 302 kts 211°
2026-04-24 13:21 -35.68059 -72.30840 14824 ft 303 kts 211°
2026-04-24 13:21 -35.69936 -72.32049 14423 ft 305 kts 211°
2026-04-24 13:21 -35.71794 -72.33245 14020 ft 306 kts 211°
2026-04-24 13:21 -35.73679 -72.34458 13596 ft 306 kts 211°
2026-04-24 13:22 -35.75563 -72.35668 13190 ft 305 kts 210°
2026-04-24 13:22 -35.77439 -72.36873 12780 ft 304 kts 210°
2026-04-24 13:22 -35.79309 -72.38075 12375 ft 303 kts 210°
2026-04-24 13:22 -35.81175 -72.39273 11968 ft 302 kts 210°
2026-04-24 13:23 -35.83033 -72.40469 11551 ft 301 kts 210°
2026-04-24 13:23 -35.84889 -72.41663 11140 ft 300 kts 209°
2026-04-24 13:23 -35.86714 -72.42840 10716 ft 300 kts 209°
2026-04-24 13:23 -35.88562 -72.44035 10334 ft 299 kts 209°
2026-04-24 13:24 -35.90374 -72.45292 10013 ft 294 kts 212°
2026-04-24 13:24 -35.92083 -72.46564 10005 ft 282 kts 213°
2026-04-24 13:24 -35.93736 -72.47828 9925 ft 278 kts 213°
2026-04-24 13:24 -35.95384 -72.49091 9465 ft 280 kts 213°
2026-04-24 13:25 -35.97032 -72.50347 9165 ft 276 kts 213°
2026-04-24 13:25 -35.97171 -72.50452 9158 ft 276 kts 213°
2026-04-24 13:25 -35.97322 -72.50567 9142 ft 276 kts 213°
2026-04-24 13:26 -35.98457 -72.51430 9012 ft 275 kts 213°
2026-04-24 13:26 -36.00093 -72.52668 8856 ft 275 kts 213°
2026-04-24 13:26 -36.01722 -72.53895 8691 ft 274 kts 213°
2026-04-24 13:26 -36.02743 -72.54664 8587 ft 274 kts 213°
2026-04-24 13:27 -36.04371 -72.55887 8429 ft 273 kts 213°
2026-04-24 13:27 -36.05995 -72.57107 8259 ft 273 kts 213°
2026-04-24 13:27 -36.07616 -72.58323 8104 ft 273 kts 213°
2026-04-24 13:27 -36.09236 -72.59540 7942 ft 272 kts 213°
2026-04-24 13:28 -36.10830 -72.60738 7788 ft 271 kts 213°
2026-04-24 13:28 -36.12431 -72.61943 7626 ft 269 kts 213°
2026-04-24 13:28 -36.14026 -72.63146 7467 ft 268 kts 213°
2026-04-24 13:28 -36.15618 -72.64346 7313 ft 267 kts 213°
2026-04-24 13:29 -36.17204 -72.65544 7151 ft 268 kts 213°
2026-04-24 13:29 -36.18793 -72.66742 6996 ft 267 kts 213°
2026-04-24 13:29 -36.20381 -72.67939 6845 ft 267 kts 213°
2026-04-24 13:29 -36.21961 -72.69128 6679 ft 265 kts 213°
2026-04-24 13:30 -36.23535 -72.70316 6514 ft 264 kts 213°
2026-04-24 13:30 -36.25080 -72.71482 6355 ft 263 kts 212°
2026-04-24 13:30 -36.26638 -72.72660 6201 ft 263 kts 212°
2026-04-24 13:30 -36.28195 -72.73838 6044 ft 262 kts 212°
2026-04-24 13:31 -36.29750 -72.75016 5893 ft 261 kts 212°
2026-04-24 13:31 -36.31300 -72.76187 5744 ft 260 kts 212°
2026-04-24 13:31 -36.32845 -72.77357 5589 ft 260 kts 211°
2026-04-24 13:31 -36.34384 -72.78524 5428 ft 259 kts 211°
2026-04-24 13:32 -36.35900 -72.79671 5290 ft 259 kts 211°
2026-04-24 13:32 -36.37430 -72.80830 5131 ft 258 kts 211°
2026-04-24 13:32 -36.38956 -72.81986 4970 ft 256 kts 211°
2026-04-24 13:32 -36.40482 -72.83132 4784 ft 256 kts 211°
2026-04-24 13:33 -36.42001 -72.84267 4605 ft 255 kts 211°
2026-04-24 13:33 -36.43521 -72.85406 4426 ft 254 kts 211°
2026-04-24 13:33 -36.45025 -72.86532 4252 ft 253 kts 211°
2026-04-24 13:33 -36.46510 -72.87641 4066 ft 252 kts 210°
2026-04-24 13:34 -36.48017 -72.88768 3910 ft 253 kts 211°
2026-04-24 13:34 -36.49521 -72.89895 3727 ft 252 kts 211°
2026-04-24 13:34 -36.51019 -72.91019 3590 ft 251 kts 210°
2026-04-24 13:34 -36.52580 -72.91982 3515 ft 250 kts 204°
2026-04-24 13:35 -36.54107 -72.92862 3512 ft 234 kts 205°
2026-04-24 13:35 -36.55525 -72.93684 3515 ft 217 kts 205°
2026-04-24 13:35 -36.56860 -72.94460 3518 ft 209 kts 205°
2026-04-24 13:35 -36.58162 -72.95216 3506 ft 208 kts 206°
2026-04-24 13:36 -36.59464 -72.95973 3517 ft 205 kts 205°
2026-04-24 13:36 -36.60046 -72.96311 3512 ft 205 kts 205°
2026-04-24 13:36 -36.60355 -72.96493 3512 ft 205 kts 205°
2026-04-24 13:38 -36.61540 -72.97224 3498 ft 206 kts 206°
2026-04-24 13:38 -36.62873 -72.98004 2988 ft 216 kts 205°
2026-04-24 13:38 -36.64225 -72.98778 2609 ft 210 kts 205°
2026-04-24 13:39 -36.65532 -72.99523 2332 ft 204 kts 205°
2026-04-24 13:39 -36.66780 -73.00236 2156 ft 189 kts 205°
2026-04-24 13:39 -36.67920 -73.00892 1865 ft 169 kts 205°
2026-04-24 13:39 -36.68914 -73.01467 1650 ft 149 kts 205°
2026-04-24 13:40 -36.69806 -73.01982 1435 ft 136 kts 205°
2026-04-24 13:40 -36.70647 -73.02467 1262 ft 131 kts 205°
2026-04-24 13:40 -36.71467 -73.02942 1069 ft 129 kts 205°
2026-04-24 13:40 -36.72281 -73.03413 892 ft 129 kts 205°
2026-04-24 13:41 -36.73107 -73.03893 713 ft 133 kts 205°
2026-04-24 13:41 -36.73944 -73.04381 557 ft 133 kts 205°
2026-04-24 13:41 -36.74784 -73.04875 371 ft 132 kts 205°
2026-04-24 13:41 -36.75617 -73.05365 223 ft 133 kts 205°
2026-04-24 13:42 -36.76443 -73.05849 84 ft 126 kts 205°
2026-04-24 13:42 -36.77120 -73.06239 60 ft 76 kts 206°
2026-04-24 13:42 -36.77361 -73.06350 63 ft 18 kts 173°
2026-04-24 13:42 -36.77464 -73.06329 61 ft 18 kts 174°
2026-04-24 13:43 -36.77583 -73.06318 60 ft 12 kts 176°
2026-04-24 13:43 -36.77630 -73.06300 59 ft 2 kts 85°
2026-04-24 13:43 -36.77617 -73.06282 56 ft 3 kts 33°
2026-04-24 13:43 -36.77579 -73.06259 53 ft 15 kts 26°
2026-04-24 13:44 -36.77507 -73.06193 57 ft 11 kts 69°
2026-04-24 13:44 -36.77525 -73.06106 58 ft 10 kts 111°
2026-04-24 13:44 -36.77553 -73.06047 54 ft 6 kts 153°
2026-04-24 13:44 -36.77573 -73.06041 57 ft 1 kts 167°
2026-04-24 13:45 -36.77580 -73.06039 55 ft 1 kts 167°
2026-04-24 13:45 -36.77588 -73.06036 55 ft 1 kts 169°
2026-04-24 13:45 -36.77592 -73.06036 54 ft 0 kts 169°
2026-04-24 13:45 -36.77597 -73.06034 54 ft 1 kts 169°
2026-04-24 13:46 -36.77601 -73.06034 57 ft 0 kts 170°
2026-04-24 13:46 -36.77602 -73.06033 57 ft 0 kts 170°